DW6927 Weather Reports


Display with metric or nautical units.
time (UTC)temp
F
wind
direction
speed
MPH
gust
MPH
rain 1hr
in
rain 24hr
in
rain mn
in
humidity
%
barometer
mb
20260903214054 78 0 0.0 0.0 0.00 0.23 0.23 94 1017.4
20260903213554 78 0 0.0 0.0 0.00 0.23 0.23 94 1017.3
20260903213104 78 0 0.0 0.0 0.00 0.23 0.23 94 1017.4
20260903212554 78 0 0.0 0.0 0.00 0.23 0.23 94 1017.3
20260903212051 78 0 0.0 0.0 0.00 0.23 0.23 94 1017.5
20260903211607 78 0 0.0 0.0 0.00 0.23 0.23 95 1017.4
20260903211050 78 0 0.0 1.0 0.01 0.23 0.23 95 1017.5
20260903210550 77 0 0.0 3.0 0.01 0.23 0.23 94 1017.6
20260903210111 77 0 0.0 3.0 0.01 0.23 0.23 94 1017.5
20260903205550 77 0 1.0 3.0 0.01 0.23 0.23 94 1017.5
20260903205051 78 205 0.0 0.0 0.01 0.23 0.23 94 1017.7
20260903204603 77 0 0.0 0.0 0.04 0.23 0.23 94 1017.8
20260903204053 77 0 0.0 1.0 0.06 0.23 0.23 94 1017.8
20260903203554 78 0 0.0 2.0 0.14 0.23 0.23 94 1017.9
20260903203132 77 0 0.0 3.0 0.20 0.23 0.23 93 1017.9
20260903202550 77 209 1.0 4.0 0.23 0.23 0.23 93 1018.0
20260903202050 77 187 0.0 4.0 0.23 0.23 0.23 91 1018.1
20260903201603 78 0 0.0 2.0 0.23 0.23 0.23 91 1018.1
20260903201055 78 0 0.0 3.0 0.22 0.22 0.22 91 1018.1
20260903200554 78 0 1.0 3.0 0.22 0.22 0.22 91 1018.1
20260903195554 79 227 0.0 3.0 0.22 0.22 0.22 88 1018.4
20260903195053 79 227 1.0 5.0 0.22 0.22 0.22 86 1018.5
20260903194600 80 165 0.0 6.0 0.19 0.19 0.19 84 1018.7
20260903194051 82 250 3.0 6.0 0.17 0.17 0.17 81 1018.9
20260903193550 85 248 1.0 3.0 0.09 0.09 0.09 77 1019.0
20260903193100 86 177 0.0 3.0 0.02 0.02 0.02 73 1018.8
20260903192550 87 97 0.0 3.0 0.00 0.00 0.00 71 1018.5
20260903192053 88 0 0.0 2.0 0.00 0.00 0.00 69 1018.4
20260903191604 89 230 0.0 2.0 0.00 0.00 0.00 70 1018.4
20260903191054 89 0 0.0 1.0 0.00 0.00 0.00 70 1018.4
20260903190557 89 0 0.0 2.0 0.00 0.00 0.00 69 1018.5
20260903190058 90 0 0.0 2.0 0.00 0.00 0.00 68 1018.4
20260903185552 90 230 0.0 2.0 0.00 0.00 0.00 67 1018.5
20260903185050 90 230 0.0 2.0 0.00 0.00 0.00 68 1018.6
20260903184557 91 0 0.0 2.0 0.00 0.00 0.00 63 1018.6
20260903184053 91 0 0.0 3.0 0.00 0.00 0.00 64 1018.7
20260903183550 91 0 0.0 5.0 0.00 0.00 0.00 65 1018.8
20260903183106 91 134 2.0 5.0 0.00 0.00 0.00 62 1018.8
20260903182557 92 0 0.0 0.0 0.00 0.00 0.00 65 1018.7
20260903182054 91 0 0.0 1.0 0.00 0.00 0.00 65 1018.9
20260903181601 91 0 0.0 2.0 0.00 0.00 0.00 64 1019.0
20260903181056 90 0 0.0 4.0 0.00 0.00 0.00 63 1018.9
20260903180554 90 279 1.0 4.0 0.00 0.00 0.00 63 1019.0
20260903180104 90 132 2.0 4.0 0.00 0.00 0.00 63 1019.0
20260903175553 90 163 0.0 4.0 0.00 0.00 0.00 64 1019.1
20260903175054 90 138 1.0 5.0 0.00 0.00 0.00 62 1019.1
20260903174558 90 131 1.0 5.0 0.00 0.00 0.00 62 1019.2
20260903174055 90 164 1.0 5.0 0.00 0.00 0.00 65 1019.3
20260903173550 90 90 0.0 4.0 0.00 0.00 0.00 66 1019.3
20260903173106 90 167 0.0 4.0 0.00 0.00 0.00 64 1019.5
20260903172554 91 118 0.0 4.0 0.00 0.00 0.00 63 1019.5
20260903172053 91 0 0.0 4.0 0.00 0.00 0.00 65 1019.7
20260903171614 90 0 0.0 2.0 0.00 0.00 0.00 65 1019.6
20260903171055 91 0 0.0 3.0 0.00 0.00 0.00 65 1019.8
20260903170626 91 0 1.0 3.0 0.00 0.00 0.00 64 1019.8
20260903170057 91 281 0.0 3.0 0.00 0.00 0.00 64 1019.9
20260903165550 90 341 0.0 1.0 0.00 0.00 0.00 66 1019.8
20260903165054 90 0 0.0 3.0 0.00 0.00 0.00 65 1020.0
20260903164640 89 0 0.0 4.0 0.00 0.00 0.00 70 1019.9
20260903164050 89 142 0.0 4.0 0.00 0.00 0.00 66 1020.1
20260903163551 89 0 1.0 4.0 0.00 0.00 0.00 67 1020.2
20260903163105 89 134 1.0 4.0 0.00 0.00 0.00 66 1020.2
20260903162554 89 127 1.0 4.0 0.00 0.00 0.00 68 1020.2
20260903162050 89 163 1.0 3.0 0.00 0.00 0.00 66 1020.2
20260903161600 89 0 1.0 3.0 0.00 0.00 0.00 66 1020.3
20260903161055 89 138 0.0 3.0 0.00 0.00 0.00 70 1020.4
20260903160554 89 0 0.0 3.0 0.00 0.00 0.00 67 1020.3
20260903160057 89 184 1.0 3.0 0.00 0.00 0.00 66 1020.5
20260903155550 89 134 0.0 2.0 0.00 0.00 0.00 71 1020.4
20260903155050 89 0 0.0 0.0 0.00 0.00 0.00 75 1020.4
20260903154559 89 0 0.0 1.0 0.00 0.00 0.00 72 1020.4
20260903154051 89 0 0.0 1.0 0.00 0.00 0.00 73 1020.3
20260903153550 88 0 0.0 3.0 0.00 0.00 0.00 74 1020.4
20260903153108 88 0 0.0 3.0 0.00 0.00 0.00 72 1020.3
20260903152550 88 94 1.0 3.0 0.00 0.00 0.00 72 1020.4
20260903152053 88 0 0.0 3.0 0.00 0.00 0.00 74 1020.4
20260903151602 87 0 0.0 3.0 0.00 0.00 0.00 73 1020.4
20260903151050 87 0 0.0 3.0 0.00 0.00 0.00 74 1020.5
20260903150550 87 0 0.0 0.0 0.00 0.00 0.00 79 1020.4
20260903150107 86 0 0.0 0.0 0.00 0.00 0.00 78 1020.4
20260903145553 86 0 0.0 0.0 0.00 0.00 0.00 77 1020.3
20260903145050 85 0 0.0 0.0 0.00 0.00 0.00 81 1020.4
20260903144614 85 0 0.0 2.0 0.00 0.00 0.00 81 1020.2
20260903144052 84 0 0.0 2.0 0.00 0.00 0.00 81 1020.3
20260903143553 84 153 1.0 2.0 0.00 0.00 0.00 81 1020.3
20260903143104 83 144 0.0 2.0 0.00 0.00 0.00 84 1020.3
20260903142550 83 144 0.0 2.0 0.00 0.00 0.00 84 1020.3
20260903142051 82 0 0.0 1.0 0.00 0.00 0.00 86 1020.3
20260903141606 81 0 0.0 2.0 0.00 0.00 0.00 88 1020.3
20260903141050 80 0 0.0 2.0 0.00 0.00 0.00 90 1020.3
20260903140550 80 0 0.0 2.0 0.00 0.00 0.00 88 1020.2
20260903140112 80 0 0.0 0.0 0.00 0.00 0.00 89 1020.1
20260903135550 80 0 0.0 0.0 0.00 0.00 0.00 90 1020.1
20260903135054 79 0 0.0 0.0 0.00 0.00 0.00 91 1020.3
20260903134558 79 0 0.0 0.0 0.00 0.00 0.00 91 1020.4
20260903134053 78 0 0.0 0.0 0.00 0.00 0.00 92 1020.4
20260903133554 78 0 0.0 0.0 0.00 0.00 0.00 92 1020.3
20260903133101 77 0 0.0 0.0 0.00 0.00 0.00 93 1020.3
20260903132551 77 0 0.0 0.0 0.00 0.00 0.00 94 1020.4
20260903132057 77 0 0.0 0.0 0.00 0.00 0.00 96 1020.3
20260903131604 76 0 0.0 0.0 0.00 0.00 0.00 96 1020.4
20260903131049 75 0 0.0 0.0 0.00 0.00 0.00 97 1020.4
20260903130552 75 0 0.0 0.0 0.00 0.00 0.00 98 1020.6
20260903125554 73 0 0.0 0.0 0.00 0.00 0.00 98 1020.5
20260903125054 72 0 0.0 0.0 0.00 0.00 0.00 98 1020.7
20260903124608 72 0 0.0 0.0 0.00 0.00 0.00 98 1020.6
20260903124053 71 0 0.0 0.0 0.00 0.00 0.00 98 1020.8
20260903123554 71 0 0.0 0.0 0.00 0.00 0.00 98 1020.7
20260903123058 70 0 0.0 0.0 0.00 0.00 0.00 98 1020.7
20260903122550 70 0 0.0 0.0 0.00 0.00 0.00 97 1020.7
20260903122050 70 0 0.0 0.0 0.00 0.00 0.00 97 1020.6
20260903121612 69 0 0.0 0.0 0.00 0.00 0.00 97 1020.5
20260903121051 69 0 0.0 0.0 0.00 0.00 0.00 97 1020.4
20260903120554 69 0 0.0 0.0 0.00 0.00 0.00 97 1020.4
20260903120110 69 0 0.0 0.0 0.00 0.00 0.00 97 1020.4
20260903115554 69 0 0.0 0.0 0.00 0.00 0.00 97 1020.5
20260903115050 69 0 0.0 0.0 0.00 0.00 0.00 97 1020.3
20260903114604 69 0 0.0 0.0 0.00 0.00 0.00 97 1020.4
20260903114053 69 0 0.0 0.0 0.00 0.00 0.00 96 1020.2
20260903113553 69 0 0.0 0.0 0.00 0.00 0.00 96 1020.1
20260903113144 69 0 0.0 0.0 0.00 0.00 0.00 96 1020.1
20260903112550 69 0 0.0 0.0 0.00 0.00 0.00 96 1020.1
20260903112051 69 0 0.0 0.0 0.00 0.00 0.00 97 1020.0
20260903111601 69 0 0.0 0.0 0.00 0.00 0.00 97 1019.8
20260903111051 70 0 0.0 0.0 0.00 0.00 0.00 97 1019.8
20260903110550 70 0 0.0 0.0 0.00 0.00 0.00 97 1019.7
20260903110105 70 0 0.0 0.0 0.00 0.00 0.00 97 1019.9
20260903105552 70 0 0.0 0.0 0.00 0.00 0.00 97 1019.8
20260903105051 70 0 0.0 0.0 0.00 0.00 0.00 97 1019.7
20260903104611 70 0 0.0 0.0 0.00 0.00 0.00 97 1019.7
20260903104051 70 0 0.0 0.0 0.00 0.00 0.00 97 1019.6
20260903103550 70 0 0.0 0.0 0.00 0.00 0.00 97 1019.5
20260903103106 70 0 0.0 0.0 0.00 0.00 0.00 97 1019.5
20260903102550 70 0 0.0 0.0 0.00 0.00 0.00 96 1019.5
20260903102049 70 0 0.0 0.0 0.00 0.00 0.00 96 1019.5
20260903101608 70 0 0.0 0.0 0.00 0.00 0.00 96 1019.5
20260903101050 70 0 0.0 0.0 0.00 0.00 0.00 96 1019.3
20260903100552 70 0 0.0 0.0 0.00 0.00 0.00 96 1019.3
20260903100059 70 0 0.0 0.0 0.00 0.00 0.00 96 1019.2
20260903095553 70 0 0.0 0.0 0.00 0.00 0.00 96 1019.3
20260903095050 71 0 0.0 0.0 0.00 0.00 0.00 96 1019.3
20260903094558 71 0 0.0 0.0 0.00 0.00 0.00 97 1019.2
20260903094050 71 0 0.0 0.0 0.00 0.00 0.00 97 1019.0
20260903093551 71 0 0.0 0.0 0.00 0.00 0.00 97 1019.1
20260903093106 71 0 0.0 0.0 0.00 0.00 0.00 97 1018.9
20260903092550 71 0 0.0 0.0 0.00 0.00 0.00 97 1019.0
20260903092050 71 0 0.0 0.0 0.00 0.00 0.00 96 1019.1
20260903091601 71 0 0.0 0.0 0.00 0.00 0.00 96 1018.9
20260903091050 71 0 0.0 0.0 0.00 0.00 0.00 96 1019.0
20260903090551 71 0 0.0 0.0 0.00 0.00 0.00 96 1019.0
20260903090059 71 0 0.0 0.0 0.00 0.00 0.00 96 1019.0
20260903085550 71 0 0.0 0.0 0.00 0.00 0.00 96 1019.1
20260903085050 71 0 0.0 0.0 0.00 0.00 0.00 96 1019.2
20260903084559 71 0 0.0 0.0 0.00 0.00 0.00 96 1019.4
20260903084050 71 0 0.0 0.0 0.00 0.00 0.00 96 1019.3
20260903083551 71 0 0.0 0.0 0.00 0.00 0.00 96 1019.3
20260903083108 71 0 0.0 0.0 0.00 0.00 0.00 96 1019.4
20260903082553 71 0 0.0 0.0 0.00 0.00 0.00 96 1019.3
20260903082050 71 0 0.0 0.0 0.00 0.00 0.00 96 1019.4
20260903081600 71 0 0.0 0.0 0.00 0.00 0.00 96 1019.5
20260903081050 71 0 0.0 0.0 0.00 0.00 0.00 96 1019.5
20260903080551 71 0 0.0 0.0 0.00 0.00 0.00 96 1019.6
20260903075551 71 0 0.0 0.0 0.00 0.00 0.00 96 1019.5
20260903075053 71 0 0.0 0.0 0.00 0.00 0.00 96 1019.5
20260903074557 72 0 0.0 0.0 0.00 0.00 0.00 96 1019.2
20260903074054 72 0 0.0 0.0 0.00 0.00 0.00 95 1019.3
20260903073655 72 0 0.0 0.0 0.00 0.00 0.00 95 1019.3
20260903073204 72 0 0.0 0.0 0.00 0.00 0.00 96 1019.0
20260903072559 72 0 0.0 0.0 0.00 0.00 0.00 96 1019.2
20260903072050 72 0 0.0 0.0 0.00 0.00 0.00 96 1019.0
20260903071610 72 0 0.0 0.0 0.00 0.00 0.00 96 1019.0
20260903071049 72 0 0.0 0.0 0.00 0.00 0.00 95 1019.0
20260903070553 72 0 0.0 0.0 0.00 0.00 0.00 95 1019.1
20260903070100 72 0 0.0 0.0 0.00 0.00 0.00 95 1019.1
20260903065555 72 0 0.0 0.0 0.00 0.00 0.00 95 1019.0
20260903065050 72 0 0.0 0.0 0.00 0.00 0.00 95 1019.1
20260903064600 72 0 0.0 0.0 0.00 0.00 0.00 95 1019.2
20260903064050 72 0 0.0 0.0 0.00 0.00 0.00 95 1019.1
20260903063549 72 0 0.0 0.0 0.00 0.00 0.00 95 1019.1
20260903063152 72 0 0.0 0.0 0.00 0.00 0.00 95 1019.3
20260903062550 72 0 0.0 0.0 0.00 0.00 0.00 95 1019.2
20260903062052 72 0 0.0 0.0 0.00 0.00 0.00 95 1019.3
20260903061558 73 0 0.0 0.0 0.00 0.00 0.00 95 1019.2
20260903061051 73 0 0.0 0.0 0.00 0.00 0.00 95 1019.3
20260903060555 73 0 0.0 0.0 0.00 0.00 0.00 95 1019.3
20260903060109 73 0 0.0 0.0 0.00 0.00 0.00 95 1019.3
20260903055550 73 0 0.0 0.0 0.00 0.00 0.00 95 1019.3
20260903055053 73 0 0.0 0.0 0.00 0.00 0.00 94 1019.3
20260903054607 73 0 0.0 0.0 0.00 0.00 0.00 94 1019.4
20260903054051 73 0 0.0 0.0 0.00 0.00 0.00 94 1019.3
20260903053618 73 0 0.0 0.0 0.00 0.00 0.00 94 1019.5
20260903053103 73 0 0.0 0.0 0.00 0.00 0.00 94 1019.5
20260903052553 73 0 0.0 0.0 0.00 0.00 0.00 94 1019.5
20260903052050 73 0 0.0 0.0 0.00 0.00 0.00 94 1019.4
20260903051650 73 0 0.0 0.0 0.00 0.00 0.00 94 1019.5
20260903051050 73 0 0.0 0.0 0.00 0.00 0.00 94 1019.4
20260903050551 73 0 0.0 0.0 0.00 0.00 0.00 94 1019.4
20260903050115 73 0 0.0 0.0 0.00 0.00 0.00 94 1019.5
20260903045550 74 0 0.0 0.0 0.00 0.00 0.00 94 1019.5
20260903045053 74 0 0.0 0.0 0.00 0.00 0.00 94 1019.5
20260903044603 74 0 0.0 0.0 0.00 0.00 0.00 94 1019.5
20260903044053 74 0 0.0 0.0 0.00 0.00 0.00 93 1019.5
20260903043550 74 0 0.0 0.0 0.00 0.00 0.00 93 1019.5
20260903043208 74 0 0.0 0.0 0.00 0.00 0.00 94 1019.5
20260903042550 74 0 0.0 0.0 0.00 0.00 0.00 94 1019.6
20260903042050 74 0 0.0 0.0 0.00 0.00 0.00 93 1019.6
20260903041609 74 0 0.0 0.0 0.00 0.00 0.00 93 1019.5
20260903041053 74 0 0.0 0.0 0.00 0.00 0.00 93 1019.5
20260903040551 74 0 0.0 0.0 0.00 0.00 0.00 93 1019.5
20260903040101 74 0 0.0 0.0 0.00 0.00 0.00 93 1019.5
20260903035549 74 0 0.0 0.0 0.00 0.00 0.00 92 1019.5
20260903035053 74 0 0.0 0.0 0.00 0.00 0.00 92 1019.5
20260903034601 74 0 0.0 0.0 0.00 0.00 0.00 93 1019.7
20260903034051 74 0 0.0 0.0 0.00 0.00 0.00 92 1019.6
20260903033551 75 0 0.0 0.0 0.00 0.00 0.00 92 1019.6
20260903033100 75 0 0.0 0.0 0.00 0.00 0.00 92 1019.6
20260903032550 75 0 0.0 0.0 0.00 0.00 0.00 92 1019.6
20260903032049 75 0 0.0 0.0 0.00 0.00 0.00 92 1019.6
20260903031559 75 0 0.0 0.0 0.00 0.00 0.00 91 1019.7
20260903031049 75 0 0.0 0.0 0.00 0.00 0.00 91 1019.8
20260903030549 75 0 0.0 0.0 0.00 0.00 0.00 91 1019.7
20260903030058 75 0 0.0 0.0 0.00 0.00 0.00 91 1019.9
20260903025554 75 0 0.0 0.0 0.00 0.00 0.00 90 1019.6
20260903025053 76 0 0.0 0.0 0.00 0.00 0.00 90 1019.7
20260903024605 76 0 0.0 0.0 0.00 0.00 0.00 90 1019.7
20260903024050 76 0 0.0 0.0 0.00 0.00 0.00 89 1019.7
20260903023550 76 0 0.0 0.0 0.00 0.00 0.00 89 1019.7
20260903023058 76 0 0.0 0.0 0.00 0.00 0.00 89 1019.8
20260903022552 76 0 0.0 0.0 0.00 0.00 0.00 89 1019.9
20260903022049 76 0 0.0 0.0 0.00 0.00 0.00 88 1019.7
20260903021605 76 0 0.0 0.0 0.00 0.00 0.00 88 1019.6
20260903021050 77 0 0.0 0.0 0.00 0.00 0.00 87 1019.7
20260903020549 77 0 0.0 0.0 0.00 0.00 0.00 87 1019.6
20260903020058 77 0 0.0 0.0 0.00 0.00 0.00 87 1019.6
20260903015549 77 0 0.0 0.0 0.00 0.00 0.00 86 1019.6
20260903015049 77 0 0.0 0.0 0.00 0.00 0.00 86 1019.6
20260903014602 77 0 0.0 0.0 0.00 0.00 0.00 86 1019.5
20260903014051 78 0 0.0 0.0 0.00 0.00 0.00 85 1019.5
20260903013550 78 0 0.0 0.0 0.00 0.00 0.00 84 1019.5
20260903013107 78 0 0.0 0.0 0.00 0.00 0.00 84 1019.5
20260903012550 78 0 0.0 1.0 0.00 0.00 0.00 83 1019.6
20260903012049 78 0 0.0 1.0 0.00 0.00 0.00 83 1019.4
20260903011608 79 0 0.0 1.0 0.00 0.00 0.00 83 1019.2
20260903011051 79 0 0.0 0.0 0.00 0.00 0.00 83 1019.1
20260903010550 79 0 0.0 0.0 0.00 0.00 0.00 82 1019.0
20260903010153 79 0 0.0 0.0 0.00 0.00 0.00 81 1019.0
20260903005556 79 0 0.0 0.0 0.00 0.00 0.00 81 1018.9
20260903005054 80 0 0.0 0.0 0.00 0.00 0.00 81 1018.9
20260903004606 80 0 0.0 0.0 0.00 0.00 0.00 81 1018.8
20260903004055 80 0 0.0 1.0 0.00 0.00 0.00 81 1018.8
20260903003554 80 0 0.0 1.0 0.00 0.00 0.00 81 1018.8
20260903003102 80 0 0.0 1.0 0.00 0.00 0.00 80 1018.9
20260903002555 80 0 0.0 0.0 0.00 0.00 0.00 80 1018.8
20260903002055 81 0 0.0 1.0 0.00 0.00 0.00 80 1018.9
20260903001557 81 0 0.0 1.0 0.00 0.00 0.00 80 1018.8
20260903001055 81 182 0.0 0.0 0.00 0.00 0.00 80 1018.7
20260903000554 81 0 0.0 0.0 0.00 0.00 0.00 79 1018.9
20260903000110 81 0 0.0 0.0 0.00 0.00 0.00 79 1018.8
20260902235554 82 0 0.0 2.0 0.00 0.00 0.00 79 1018.7
20260902235055 82 0 0.0 2.0 0.00 0.00 0.00 79 1018.6
20260902234617 82 182 0.0 2.0 0.00 0.00 0.00 78 1018.5
20260902234055 82 0 0.0 1.0 0.00 0.00 0.00 78 1018.6
20260902233554 82 0 0.0 1.0 0.00 0.00 0.00 77 1018.7
20260902233102 82 182 0.0 1.0 0.00 0.00 0.00 77 1018.5
20260902232554 83 0 0.0 1.0 0.00 0.00 0.00 77 1018.6
20260902232054 83 0 0.0 1.0 0.00 0.00 0.00 77 1018.7
20260902231613 83 0 0.0 1.0 0.00 0.00 0.00 76 1018.8
20260902231056 83 0 0.0 2.0 0.00 0.00 0.00 76 1018.7
20260902230558 83 0 0.0 2.0 0.00 0.00 0.00 76 1018.7
20260902230104 83 182 0.0 2.0 0.00 0.00 0.00 76 1018.6
20260902225555 84 182 0.0 2.0 0.00 0.00 0.00 75 1018.8
20260902225054 84 0 0.0 2.0 0.00 0.00 0.00 75 1018.8
20260902224610 84 182 0.0 2.0 0.00 0.00 0.00 75 1018.6
20260902224054 84 0 0.0 2.0 0.00 0.00 0.00 75 1018.8
20260902223554 84 0 0.0 2.0 0.00 0.00 0.00 75 1018.8
20260902223102 84 182 0.0 2.0 0.00 0.00 0.00 73 1018.8
20260902222553 84 0 0.0 2.0 0.00 0.00 0.00 72 1019.0
20260902222055 84 182 1.0 2.0 0.00 0.00 0.00 72 1018.9
20260902221602 85 0 0.0 2.0 0.00 0.00 0.00 71 1018.8
20260902221054 85 182 0.0 2.0 0.00 0.00 0.00 70 1018.9
20260902220555 85 0 0.0 2.0 0.00 0.00 0.00 70 1019.0
20260902220057 85 0 0.0 2.0 0.00 0.00 0.00 70 1019.0
20260902215556 86 0 0.0 3.0 0.00 0.00 0.00 69 1019.0
20260902215054 86 182 0.0 3.0 0.00 0.00 0.00 68 1019.1
20260902214601 86 0 0.0 3.0 0.00 0.00 0.00 67 1018.9